Location: City of Britt
(43.0975°N, 93.8032°W)
Time: 06:14:01
(UTC+00:00)

ISS - Visible Passes

Search period start: 14 October 2024 00:00
Search period end: 24 October 2024 00:00
Orbit: 411 x 423 km, 51.6° (Epoch: 13 October)

Date Brightness Start Highest point End Pass type
(mag) Time Alt. Az. Time Alt. Az. Time Alt. Az.
15 Oct -0.4 11:21:38 10° SE 11:22:12 10° SE 11:22:46 10° ESE visible
17 Oct -1.8 11:19:03 10° SSW 11:21:56 28° SE 11:24:49 10° ENE visible
18 Oct -1.2 10:32:31 14° SSE 10:33:42 17° SE 10:35:54 10° E visible
19 Oct -3.7 11:19:37 21° SW 11:21:40 76° SE 11:25:00 10° ENE visible
20 Oct -2.7 10:33:35 42° ESE 10:33:35 42° ESE 10:36:25 10° ENE visible
20 Oct -2.8 12:07:00 10° W 12:10:03 32° NNW 12:13:06 10° NE visible
21 Oct -0.3 09:47:22 12° E 09:47:22 12° E 09:47:38 10° ENE visible
21 Oct -3.3 11:20:17 31° WNW 11:21:24 45° NNW 11:24:38 10° NE visible
22 Oct -2.5 10:33:55 37° NE 10:33:55 37° NE 10:36:05 10° NE visible
22 Oct -2.1 12:07:16 10° WNW 12:09:56 22° NNW 12:12:35 10° NE visible
23 Oct -0.2 09:47:26 10° ENE 09:47:26 10° ENE 09:47:28 10° ENE visible
23 Oct -2.4 11:20:20 24° NW 11:21:07 26° NNW 11:24:00 10° NE visible
